Location: Bohy
(49.9380°N, 13.5753°E)
Time: 06:27:00
(UTC+00:00)

Cosmos 2333 Rocket - Pass Details

Date: 19 May 2025
Orbit: 840 x 862 km, 70.8° (Epoch: 22 June)

Event Time Altitude Azimuth Distance (km) Brightness Sun altitude
Rises 22:04:27 0° 331° (NNW) 3,442 6.8 -18.9°
Reaches altitude 10° 22:06:58 10° 336° (NNW) 2,499 5.9 -19.0°
Maximum altitude 22:12:38 57° 55° (NE) 998 2.6 -19.2°
Enters shadow 22:15:54 25° 125° (SE) 1,656 3.3 -19.3°
